Time,TemperatureF,DewpointF,PressureIn,WindDirection,WindDirectionDegrees,WindSpeedMPH,WindSpeedGustMPH,Humidity,HourlyPrecipIn,Conditions,Clouds,dailyrainin,SoftwareType,DateUTC
2013-01-05 00:00:00,33.0,23.0,29.32,South,180,2.0,6.0,63,0.00,,,0.00,Rainwise IP-100,2013-01-05 05:00:00,
2013-01-05 00:05:00,33.0,23.0,29.32,WSW,247,1.0,7.0,63,0.00,,,0.00,Rainwise IP-100,2013-01-05 05:05:00,
2013-01-05 00:10:00,33.0,23.0,29.32,SW,225,1.0,10.0,62,0.00,,,0.00,Rainwise IP-100,2013-01-05 05:10:00,
2013-01-05 00:15:00,33.0,23.0,29.32,SW,225,0.0,6.0,63,0.00,,,0.00,Rainwise IP-100,2013-01-05 05:15:00,
2013-01-05 00:20:00,33.0,23.0,29.32,SSE,157,0.0,9.0,63,0.00,,,0.00,Rainwise IP-100,2013-01-05 05:20:00,
2013-01-05 00:25:00,32.0,21.0,29.33,SE,135,3.0,7.0,62,0.00,,,0.00,Rainwise IP-100,2013-01-05 05:25:00,
2013-01-05 00:30:00,32.0,21.0,29.33,SW,225,4.0,5.0,63,0.00,,,0.00,Rainwise IP-100,2013-01-05 05:30:00,
2013-01-05 00:35:00,32.0,21.0,29.32,SW,225,2.0,6.0,62,0.00,,,0.00,Rainwise IP-100,2013-01-05 05:35:00,
2013-01-05 00:40:00,33.0,23.0,29.32,SSE,157,2.0,8.0,63,0.00,,,0.00,Rainwise IP-100,2013-01-05 05:40:00,
2013-01-05 00:43:00,33.0,23.0,29.32,SW,225,5.0,9.0,63,0.00,,,0.00,Rainwise IP-100,2013-01-05 05:43:00,
2013-01-05 00:48:00,33.0,23.0,29.31,South,180,4.0,9.0,62,0.00,,,0.00,Rainwise IP-100,2013-01-05 05:48:00,
2013-01-05 00:53:00,33.0,23.0,29.31,ESE,112,4.0,9.0,63,0.00,,,0.00,Rainwise IP-100,2013-01-05 05:53:00,
2013-01-05 00:58:00,33.0,23.0,29.31,South,180,3.0,9.0,63,0.00,,,0.00,Rainwise IP-100,2013-01-05 05:58:00,
2013-01-05 01:03:00,33.0,23.0,29.31,WNW,292,0.0,13.0,63,0.00,,,0.00,Rainwise IP-100,2013-01-05 06:03:00,
2013-01-05 01:08:00,33.0,23.0,29.31,WNW,292,2.0,13.0,64,0.00,,,0.00,Rainwise IP-100,2013-01-05 06:08:00,
2013-01-05 01:13:00,33.0,23.0,29.31,WSW,247,3.0,7.0,64,0.00,,,0.00,Rainwise IP-100,2013-01-05 06:13:00,
2013-01-05 01:18:00,32.0,23.0,29.31,SSW,202,11.0,11.0,64,0.00,,,0.00,Rainwise IP-100,2013-01-05 06:18:00,
2013-01-05 01:23:00,33.0,23.0,29.31,WNW,292,0.0,13.0,64,0.00,,,0.00,Rainwise IP-100,2013-01-05 06:23:00,
2013-01-05 01:28:00,33.0,23.0,29.32,WSW,247,5.0,10.0,64,0.00,,,0.00,Rainwise IP-100,2013-01-05 06:28:00,
2013-01-05 01:33:00,33.0,23.0,29.32,WNW,292,7.0,8.0,65,0.00,,,0.00,Rainwise IP-100,2013-01-05 06:33:00,
2013-01-05 01:38:00,33.0,23.0,29.33,WSW,247,1.0,11.0,65,0.00,,,0.00,Rainwise IP-100,2013-01-05 06:38:00,
2013-01-05 01:43:00,32.0,23.0,29.33,West,270,4.0,7.0,65,0.00,,,0.00,Rainwise IP-100,2013-01-05 06:43:00,
2013-01-05 01:48:00,32.0,23.0,29.34,WSW,247,3.0,9.0,65,0.00,,,0.00,Rainwise IP-100,2013-01-05 06:48:00,
2013-01-05 01:53:00,33.0,23.0,29.34,SW,225,3.0,11.0,65,0.00,,,0.00,Rainwise IP-100,2013-01-05 06:53:00,
2013-01-05 01:58:00,32.0,23.0,29.33,SW,225,2.0,7.0,65,0.00,,,0.00,Rainwise IP-100,2013-01-05 06:58:00,
2013-01-05 02:03:00,32.0,23.0,29.33,SW,225,1.0,10.0,65,0.00,,,0.00,Rainwise IP-100,2013-01-05 07:03:00,
2013-01-05 02:08:00,33.0,23.0,29.34,West,270,5.0,11.0,65,0.00,,,0.00,Rainwise IP-100,2013-01-05 07:08:00,
2013-01-05 02:13:00,33.0,23.0,29.34,South,180,6.0,9.0,65,0.00,,,0.00,Rainwise IP-100,2013-01-05 07:13:00,
2013-01-05 02:18:00,33.0,23.0,29.35,WNW,292,5.0,9.0,65,0.00,,,0.00,Rainwise IP-100,2013-01-05 07:18:00,
2013-01-05 02:23:00,33.0,23.0,29.35,WSW,247,5.0,6.0,65,0.00,,,0.00,Rainwise IP-100,2013-01-05 07:23:00,
2013-01-05 02:28:00,33.0,23.0,29.35,WNW,292,6.0,8.0,65,0.00,,,0.00,Rainwise IP-100,2013-01-05 07:28:00,
2013-01-05 02:33:00,33.0,23.0,29.35,WSW,247,6.0,8.0,65,0.00,,,0.00,Rainwise IP-100,2013-01-05 07:33:00,
2013-01-05 02:38:00,33.0,23.0,29.36,North,360,4.0,12.0,65,0.00,,,0.00,Rainwise IP-100,2013-01-05 07:38:00,
2013-01-05 02:43:00,34.0,24.0,29.36,WSW,247,3.0,7.0,65,0.00,,,0.00,Rainwise IP-100,2013-01-05 07:43:00,
2013-01-05 02:48:00,34.0,24.0,29.35,WNW,292,6.0,9.0,65,0.00,,,0.00,Rainwise IP-100,2013-01-05 07:48:00,
2013-01-05 02:53:00,34.0,24.0,29.35,South,180,6.0,14.0,64,0.00,,,0.00,Rainwise IP-100,2013-01-05 07:53:00,
2013-01-05 02:58:00,33.0,23.0,29.35,SW,225,2.0,10.0,65,0.00,,,0.00,Rainwise IP-100,2013-01-05 07:58:00,
2013-01-05 03:03:00,33.0,23.0,29.35,SSW,202,6.0,9.0,65,0.00,,,0.00,Rainwise IP-100,2013-01-05 08:03:00,
2013-01-05 03:08:00,33.0,23.0,29.35,WSW,247,2.0,9.0,65,0.00,,,0.00,Rainwise IP-100,2013-01-05 08:08:00,
2013-01-05 03:13:00,33.0,23.0,29.35,WNW,292,2.0,9.0,65,0.00,,,0.00,Rainwise IP-100,2013-01-05 08:13:00,
2013-01-05 03:18:00,33.0,23.0,29.35,NW,315,0.0,7.0,65,0.00,,,0.00,Rainwise IP-100,2013-01-05 08:18:00,
2013-01-05 03:23:00,33.0,24.0,29.35,NW,315,5.0,9.0,66,0.00,,,0.00,Rainwise IP-100,2013-01-05 08:23:00,
2013-01-05 03:28:00,33.0,24.0,29.36,South,180,0.0,7.0,66,0.00,,,0.00,Rainwise IP-100,2013-01-05 08:28:00,
2013-01-05 03:33:00,33.0,24.0,29.36,ESE,112,1.0,15.0,67,0.00,,,0.00,Rainwise IP-100,2013-01-05 08:33:00,
2013-01-05 03:38:00,32.0,23.0,29.36,WNW,292,0.0,9.0,67,0.00,,,0.00,Rainwise IP-100,2013-01-05 08:38:00,
2013-01-05 03:43:00,32.0,23.0,29.36,SSW,202,0.0,8.0,68,0.00,,,0.00,Rainwise IP-100,2013-01-05 08:43:00,
2013-01-05 03:48:00,32.0,23.0,29.37,South,180,5.0,9.0,68,0.00,,,0.00,Rainwise IP-100,2013-01-05 08:48:00,
2013-01-05 03:53:00,32.0,23.0,29.37,WSW,247,0.0,8.0,69,0.00,,,0.00,Rainwise IP-100,2013-01-05 08:53:00,
2013-01-05 03:56:00,33.0,24.0,29.37,SSE,157,2.0,8.0,69,0.00,,,0.00,Rainwise IP-100,2013-01-05 08:56:00,
2013-01-05 03:58:00,33.0,24.0,29.37,SSE,157,0.0,8.0,69,0.00,,,0.00,Rainwise IP-100,2013-01-05 08:58:00,
2013-01-05 04:03:00,33.0,24.0,29.37,SSW,202,1.0,1.0,68,0.00,,,0.00,Rainwise IP-100,2013-01-05 09:03:00,
2013-01-05 04:08:00,33.0,24.0,29.37,WNW,292,4.0,8.0,68,0.00,,,0.00,Rainwise IP-100,2013-01-05 09:08:00,
2013-01-05 04:13:00,33.0,24.0,29.37,NE,45,1.0,9.0,68,0.00,,,0.00,Rainwise IP-100,2013-01-05 09:13:00,
2013-01-05 04:18:00,33.0,24.0,29.38,West,270,0.0,9.0,68,0.00,,,0.00,Rainwise IP-100,2013-01-05 09:18:00,
2013-01-05 04:23:00,33.0,24.0,29.38,ENE,67,1.0,11.0,68,0.00,,,0.00,Rainwise IP-100,2013-01-05 09:23:00,
2013-01-05 04:28:00,33.0,24.0,29.38,SSW,202,5.0,7.0,68,0.00,,,0.00,Rainwise IP-100,2013-01-05 09:28:00,
2013-01-05 04:33:00,33.0,24.0,29.38,SW,225,1.0,9.0,69,0.00,,,0.00,Rainwise IP-100,2013-01-05 09:33:00,
2013-01-05 04:38:00,33.0,24.0,29.38,NW,315,6.0,10.0,69,0.00,,,0.00,Rainwise IP-100,2013-01-05 09:38:00,
2013-01-05 04:43:00,33.0,24.0,29.38,SW,225,1.0,11.0,69,0.00,,,0.00,Rainwise IP-100,2013-01-05 09:43:00,
2013-01-05 04:48:00,32.0,24.0,29.38,South,180,1.0,8.0,70,0.00,,,0.00,Rainwise IP-100,2013-01-05 09:48:00,
2013-01-05 04:53:00,32.0,24.0,29.38,WNW,292,7.0,11.0,70,0.00,,,0.00,Rainwise IP-100,2013-01-05 09:53:00,
2013-01-05 04:58:00,32.0,24.0,29.39,ESE,112,0.0,15.0,70,0.00,,,0.00,Rainwise IP-100,2013-01-05 09:58:00,
2013-01-05 05:03:00,32.0,24.0,29.39,SE,135,3.0,15.0,70,0.00,,,0.00,Rainwise IP-100,2013-01-05 10:03:00,
2013-01-05 05:08:00,32.0,24.0,29.39,SE,135,2.0,8.0,71,0.00,,,0.00,Rainwise IP-100,2013-01-05 10:08:00,
2013-01-05 05:13:00,32.0,24.0,29.39,South,180,6.0,8.0,71,0.00,,,0.00,Rainwise IP-100,2013-01-05 10:13:00,
2013-01-05 05:18:00,32.0,24.0,29.40,SE,135,1.0,8.0,71,0.00,,,0.00,Rainwise IP-100,2013-01-05 10:18:00,
2013-01-05 05:23:00,32.0,24.0,29.40,ESE,112,2.0,5.0,72,0.00,,,0.00,Rainwise IP-100,2013-01-05 10:23:00,
2013-01-05 05:28:00,31.0,23.0,29.41,SE,135,3.0,7.0,72,0.00,,,0.00,Rainwise IP-100,2013-01-05 10:28:00,
2013-01-05 05:33:00,31.0,23.0,29.41,SSW,202,0.0,7.0,72,0.00,,,0.00,Rainwise IP-100,2013-01-05 10:33:00,
2013-01-05 05:38:00,31.0,23.0,29.42,SE,135,5.0,6.0,73,0.00,,,0.00,Rainwise IP-100,2013-01-05 10:38:00,
2013-01-05 05:43:00,31.0,23.0,29.42,ESE,112,1.0,6.0,73,0.00,,,0.00,Rainwise IP-100,2013-01-05 10:43:00,
2013-01-05 05:48:00,31.0,23.0,29.43,West,270,5.0,6.0,73,0.00,,,0.00,Rainwise IP-100,2013-01-05 10:48:00,
2013-01-05 05:53:00,31.0,24.0,29.43,WSW,247,1.0,6.0,74,0.00,,,0.00,Rainwise IP-100,2013-01-05 10:53:00,
2013-01-05 05:58:00,31.0,24.0,29.43,ESE,112,1.0,6.0,74,0.00,,,0.00,Rainwise IP-100,2013-01-05 10:58:00,
2013-01-05 06:03:00,31.0,23.0,29.43,SE,135,0.0,4.0,73,0.00,,,0.00,Rainwise IP-100,2013-01-05 11:03:00,
2013-01-05 06:08:00,31.0,23.0,29.43,SSW,202,0.0,3.0,73,0.00,,,0.00,Rainwise IP-100,2013-01-05 11:08:00,
2013-01-05 06:13:00,31.0,23.0,29.43,WSW,247,0.0,7.0,73,0.00,,,0.00,Rainwise IP-100,2013-01-05 11:13:00,
2013-01-05 06:18:00,31.0,23.0,29.44,West,270,0.0,7.0,73,0.00,,,0.00,Rainwise IP-100,2013-01-05 11:18:00,
2013-01-05 06:23:00,31.0,23.0,29.44,West,270,1.0,7.0,73,0.00,,,0.00,Rainwise IP-100,2013-01-05 11:23:00,
2013-01-05 06:28:00,30.0,23.0,29.45,West,270,0.0,5.0,73,0.00,,,0.00,Rainwise IP-100,2013-01-05 11:28:00,
2013-01-05 06:33:00,30.0,24.0,29.45,SW,225,1.0,4.0,74,0.00,,,0.00,Rainwise IP-100,2013-01-05 11:33:00,
2013-01-05 06:38:00,30.0,24.0,29.45,SW,225,1.0,2.0,75,0.00,,,0.00,Rainwise IP-100,2013-01-05 11:38:00,
2013-01-05 06:43:00,29.0,23.0,29.45,SW,225,2.0,3.0,75,0.00,,,0.00,Rainwise IP-100,2013-01-05 11:43:00,
2013-01-05 06:48:00,29.0,23.0,29.46,WSW,247,1.0,5.0,75,0.00,,,0.00,Rainwise IP-100,2013-01-05 11:48:00,
2013-01-05 06:53:00,29.0,23.0,29.46,WSW,247,0.0,6.0,75,0.00,,,0.00,Rainwise IP-100,2013-01-05 11:53:00,
2013-01-05 06:58:00,29.0,23.0,29.47,WSW,247,0.0,3.0,75,0.00,,,0.00,Rainwise IP-100,2013-01-05 11:58:00,
2013-01-05 07:03:00,29.0,23.0,29.47,SW,225,1.0,2.0,75,0.00,,,0.00,Rainwise IP-100,2013-01-05 12:03:00,
2013-01-05 07:08:00,29.0,23.0,29.48,SW,225,2.0,4.0,74,0.00,,,0.00,Rainwise IP-100,2013-01-05 12:08:00,
2013-01-05 07:13:00,29.0,23.0,29.48,SW,225,1.0,3.0,75,0.00,,,0.00,Rainwise IP-100,2013-01-05 12:13:00,
2013-01-05 07:18:00,29.0,23.0,29.48,WSW,247,0.0,2.0,75,0.00,,,0.00,Rainwise IP-100,2013-01-05 12:18:00,
2013-01-05 07:23:00,28.0,21.0,29.48,WSW,247,0.0,2.0,76,0.00,,,0.00,Rainwise IP-100,2013-01-05 12:23:00,
2013-01-05 07:28:00,28.0,21.0,29.49,West,270,1.0,3.0,76,0.00,,,0.00,Rainwise IP-100,2013-01-05 12:28:00,
2013-01-05 07:33:00,28.0,23.0,29.49,West,270,1.0,3.0,77,0.00,,,0.00,Rainwise IP-100,2013-01-05 12:33:00,
2013-01-05 07:38:00,28.0,23.0,29.49,WSW,247,0.0,3.0,77,0.00,,,0.00,Rainwise IP-100,2013-01-05 12:38:00,
2013-01-05 07:43:00,28.0,23.0,29.49,West,270,1.0,4.0,77,0.00,,,0.00,Rainwise IP-100,2013-01-05 12:43:00,
2013-01-05 07:48:00,28.0,21.0,29.50,SW,225,5.0,5.0,76,0.00,,,0.00,Rainwise IP-100,2013-01-05 12:48:00,
2013-01-05 07:53:00,29.0,23.0,29.50,WSW,247,3.0,6.0,76,0.00,,,0.00,Rainwise IP-100,2013-01-05 12:53:00,
2013-01-05 07:58:00,29.0,23.0,29.51,West,270,4.0,7.0,77,0.00,,,0.00,Rainwise IP-100,2013-01-05 12:58:00,
2013-01-05 08:03:00,30.0,23.0,29.51,SE,135,2.0,7.0,73,0.00,,,0.00,Rainwise IP-100,2013-01-05 13:03:00,
2013-01-05 08:08:00,31.0,23.0,29.51,SE,135,2.0,5.0,72,0.00,,,0.00,Rainwise IP-100,2013-01-05 13:08:00,
2013-01-05 08:13:00,32.0,26.0,29.51,WNW,292,3.0,4.0,75,0.00,,,0.00,Rainwise IP-100,2013-01-05 13:13:00,
2013-01-05 08:18:00,32.0,24.0,29.53,WNW,292,0.0,4.0,72,0.00,,,0.00,Rainwise IP-100,2013-01-05 13:18:00,
2013-01-05 08:23:00,33.0,24.0,29.53,SSW,202,4.0,4.0,70,0.00,,,0.00,Rainwise IP-100,2013-01-05 13:23:00,
2013-01-05 08:28:00,33.0,24.0,29.53,West,270,2.0,6.0,71,0.00,,,0.00,Rainwise IP-100,2013-01-05 13:28:00,
2013-01-05 08:33:00,33.0,24.0,29.53,NW,315,2.0,6.0,70,0.00,,,0.00,Rainwise IP-100,2013-01-05 13:33:00,
2013-01-05 08:38:00,33.0,24.0,29.54,WNW,292,2.0,6.0,69,0.00,,,0.00,Rainwise IP-100,2013-01-05 13:38:00,
2013-01-05 08:43:00,33.0,24.0,29.54,WSW,247,0.0,8.0,69,0.00,,,0.00,Rainwise IP-100,2013-01-05 13:43:00,
2013-01-05 08:48:00,34.0,26.0,29.55,West,270,1.0,6.0,68,0.00,,,0.00,Rainwise IP-100,2013-01-05 13:48:00,
2013-01-05 08:53:00,34.0,24.0,29.55,SSE,157,0.0,6.0,66,0.00,,,0.00,Rainwise IP-100,2013-01-05 13:53:00,
2013-01-05 08:58:00,35.0,24.0,29.56,SSW,202,1.0,5.0,64,0.00,,,0.00,Rainwise IP-100,2013-01-05 13:58:00,
2013-01-05 09:03:00,35.0,26.0,29.56,South,180,2.0,4.0,70,0.00,,,0.00,Rainwise IP-100,2013-01-05 14:03:00,
2013-01-05 09:08:00,36.0,24.0,29.56,SSE,157,6.0,7.0,63,0.00,,,0.00,Rainwise IP-100,2013-01-05 14:08:00,
2013-01-05 09:13:00,36.0,24.0,29.56,WSW,247,5.0,8.0,60,0.00,,,0.00,Rainwise IP-100,2013-01-05 14:13:00,
2013-01-05 09:18:00,36.0,24.0,29.57,West,270,4.0,6.0,60,0.00,,,0.00,Rainwise IP-100,2013-01-05 14:18:00,
2013-01-05 09:23:00,36.0,24.0,29.57,WSW,247,3.0,7.0,61,0.00,,,0.00,Rainwise IP-100,2013-01-05 14:23:00,
2013-01-05 09:28:00,36.0,24.0,29.58,WSW,247,0.0,7.0,62,0.00,,,0.00,Rainwise IP-100,2013-01-05 14:28:00,
2013-01-05 09:33:00,36.0,24.0,29.58,WNW,292,5.0,7.0,61,0.00,,,0.00,Rainwise IP-100,2013-01-05 14:33:00,
2013-01-05 09:38:00,36.0,24.0,29.59,West,270,5.0,8.0,62,0.00,,,0.00,Rainwise IP-100,2013-01-05 14:38:00,
2013-01-05 09:43:00,37.0,24.0,29.59,WNW,292,6.0,13.0,57,0.00,,,0.00,Rainwise IP-100,2013-01-05 14:43:00,
2013-01-05 09:48:00,37.0,24.0,29.60,NW,315,5.0,10.0,57,0.00,,,0.00,Rainwise IP-100,2013-01-05 14:48:00,
2013-01-05 09:53:00,37.0,24.0,29.60,NNW,337,6.0,12.0,57,0.00,,,0.00,Rainwise IP-100,2013-01-05 14:53:00,
2013-01-05 09:58:00,37.0,23.0,29.60,NNW,337,5.0,15.0,56,0.00,,,0.00,Rainwise IP-100,2013-01-05 14:58:00,
2013-01-05 10:03:00,38.0,24.0,29.60,North,360,7.0,14.0,55,0.00,,,0.00,Rainwise IP-100,2013-01-05 15:03:00,
2013-01-05 10:08:00,38.0,24.0,29.60,NW,315,8.0,11.0,55,0.00,,,0.00,Rainwise IP-100,2013-01-05 15:08:00,
2013-01-05 10:13:00,38.0,24.0,29.60,NW,315,11.0,12.0,56,0.00,,,0.00,Rainwise IP-100,2013-01-05 15:13:00,
2013-01-05 10:18:00,37.0,23.0,29.61,NNW,337,9.0,19.0,55,0.00,,,0.00,Rainwise IP-100,2013-01-05 15:18:00,
2013-01-05 10:23:00,38.0,24.0,29.61,West,270,2.0,16.0,55,0.00,,,0.00,Rainwise IP-100,2013-01-05 15:23:00,
2013-01-05 10:28:00,37.0,23.0,29.61,NW,315,7.0,12.0,55,0.00,,,0.00,Rainwise IP-100,2013-01-05 15:28:00,
2013-01-05 10:33:00,37.0,23.0,29.61,WNW,292,11.0,17.0,54,0.00,,,0.00,Rainwise IP-100,2013-01-05 15:33:00,
2013-01-05 10:38:00,37.0,23.0,29.62,West,270,14.0,25.0,53,0.00,,,0.00,Rainwise IP-100,2013-01-05 15:38:00,
2013-01-05 10:43:00,37.0,21.0,29.62,North,360,9.0,25.0,51,0.00,,,0.00,Rainwise IP-100,2013-01-05 15:43:00,
2013-01-05 10:48:00,38.0,23.0,29.61,NNW,337,10.0,18.0,52,0.00,,,0.00,Rainwise IP-100,2013-01-05 15:48:00,
2013-01-05 10:53:00,39.0,23.0,29.61,West,270,4.0,13.0,50,0.00,,,0.00,Rainwise IP-100,2013-01-05 15:53:00,
2013-01-05 10:58:00,39.0,23.0,29.61,WNW,292,9.0,20.0,48,0.00,,,0.00,Rainwise IP-100,2013-01-05 15:58:00,
2013-01-05 11:03:00,39.0,23.0,29.61,WNW,292,6.0,18.0,48,0.00,,,0.00,Rainwise IP-100,2013-01-05 16:03:00,
2013-01-05 11:08:00,39.0,23.0,29.61,West,270,6.0,24.0,49,0.00,,,0.00,Rainwise IP-100,2013-01-05 16:08:00,
2013-01-05 11:13:00,39.0,23.0,29.61,West,270,10.0,15.0,49,0.00,,,0.00,Rainwise IP-100,2013-01-05 16:13:00,
2013-01-05 11:18:00,39.0,23.0,29.61,WNW,292,13.0,20.0,48,0.00,,,0.00,Rainwise IP-100,2013-01-05 16:18:00,
2013-01-05 11:23:00,39.0,23.0,29.61,West,270,9.0,16.0,48,0.00,,,0.00,Rainwise IP-100,2013-01-05 16:23:00,
2013-01-05 11:28:00,39.0,21.0,29.61,NW,315,7.0,16.0,47,0.00,,,0.00,Rainwise IP-100,2013-01-05 16:28:00,
2013-01-05 11:33:00,39.0,21.0,29.61,West,270,10.0,16.0,47,0.00,,,0.00,Rainwise IP-100,2013-01-05 16:33:00,
2013-01-05 11:38:00,39.0,21.0,29.61,West,270,7.0,19.0,47,0.00,,,0.00,Rainwise IP-100,2013-01-05 16:38:00,
2013-01-05 11:43:00,39.0,23.0,29.61,North,360,5.0,15.0,48,0.00,,,0.00,Rainwise IP-100,2013-01-05 16:43:00,
2013-01-05 11:48:00,40.0,23.0,29.62,WNW,292,6.0,16.0,47,0.00,,,0.00,Rainwise IP-100,2013-01-05 16:48:00,
2013-01-05 11:53:00,40.0,23.0,29.62,NW,315,6.0,12.0,46,0.00,,,0.00,Rainwise IP-100,2013-01-05 16:53:00,
2013-01-05 11:58:00,40.0,21.0,29.62,WNW,292,7.0,13.0,45,0.00,,,0.00,Rainwise IP-100,2013-01-05 16:58:00,
2013-01-05 12:03:00,40.0,21.0,29.62,NNW,337,8.0,19.0,44,0.00,,,0.00,Rainwise IP-100,2013-01-05 17:03:00,
2013-01-05 12:08:00,40.0,21.0,29.62,NW,315,13.0,21.0,45,0.00,,,0.00,Rainwise IP-100,2013-01-05 17:08:00,
2013-01-05 12:13:00,40.0,21.0,29.62,WNW,292,10.0,16.0,45,0.00,,,0.00,Rainwise IP-100,2013-01-05 17:13:00,
2013-01-05 12:18:00,40.0,21.0,29.62,NNW,337,11.0,15.0,44,0.00,,,0.00,Rainwise IP-100,2013-01-05 17:18:00,
2013-01-05 12:23:00,40.0,21.0,29.62,West,270,6.0,17.0,44,0.00,,,0.00,Rainwise IP-100,2013-01-05 17:23:00,
2013-01-05 12:28:00,40.0,21.0,29.62,NW,315,6.0,12.0,45,0.00,,,0.00,Rainwise IP-100,2013-01-05 17:28:00,
2013-01-05 12:33:00,40.0,21.0,29.62,WNW,292,6.0,14.0,43,0.00,,,0.00,Rainwise IP-100,2013-01-05 17:33:00,
2013-01-05 12:38:00,40.0,21.0,29.63,WNW,292,6.0,16.0,44,0.00,,,0.00,Rainwise IP-100,2013-01-05 17:38:00,
2013-01-05 12:43:00,41.0,21.0,29.63,NW,315,9.0,16.0,42,0.00,,,0.00,Rainwise IP-100,2013-01-05 17:43:00,
2013-01-05 12:48:00,41.0,21.0,29.62,West,270,8.0,16.0,42,0.00,,,0.00,Rainwise IP-100,2013-01-05 17:48:00,
2013-01-05 12:53:00,41.0,21.0,29.62,West,270,7.0,13.0,43,0.00,,,0.00,Rainwise IP-100,2013-01-05 17:53:00,
2013-01-05 12:58:00,41.0,21.0,29.63,NW,315,3.0,13.0,41,0.00,,,0.00,Rainwise IP-100,2013-01-05 17:58:00,
2013-01-05 13:03:00,41.0,21.0,29.63,WNW,292,7.0,15.0,41,0.00,,,0.00,Rainwise IP-100,2013-01-05 18:03:00,
2013-01-05 13:08:00,41.0,21.0,29.64,NNW,337,9.0,16.0,41,0.00,,,0.00,Rainwise IP-100,2013-01-05 18:08:00,
2013-01-05 13:13:00,41.0,21.0,29.64,NW,315,7.0,16.0,41,0.00,,,0.00,Rainwise IP-100,2013-01-05 18:13:00,
2013-01-05 13:18:00,41.0,21.0,29.63,SW,225,10.0,15.0,41,0.00,,,0.00,Rainwise IP-100,2013-01-05 18:18:00,
2013-01-05 13:23:00,40.0,18.0,29.63,West,270,8.0,18.0,40,0.00,,,0.00,Rainwise IP-100,2013-01-05 18:23:00,
2013-01-05 13:28:00,41.0,21.0,29.63,WSW,247,3.0,19.0,41,0.00,,,0.00,Rainwise IP-100,2013-01-05 18:28:00,
2013-01-05 13:33:00,40.0,18.0,29.63,West,270,6.0,16.0,39,0.00,,,0.00,Rainwise IP-100,2013-01-05 18:33:00,
2013-01-05 13:38:00,41.0,18.0,29.63,WSW,247,6.0,16.0,40,0.00,,,0.00,Rainwise IP-100,2013-01-05 18:38:00,
2013-01-05 13:43:00,41.0,21.0,29.63,WSW,247,6.0,13.0,41,0.00,,,0.00,Rainwise IP-100,2013-01-05 18:43:00,
2013-01-05 13:48:00,41.0,21.0,29.64,North,360,9.0,16.0,41,0.00,,,0.00,Rainwise IP-100,2013-01-05 18:48:00,
2013-01-05 13:53:00,40.0,18.0,29.64,NNW,337,5.0,13.0,41,0.00,,,0.00,Rainwise IP-100,2013-01-05 18:53:00,
2013-01-05 13:58:00,40.0,18.0,29.65,NW,315,9.0,14.0,41,0.00,,,0.00,Rainwise IP-100,2013-01-05 18:58:00,
2013-01-05 14:03:00,39.0,18.0,29.65,WNW,292,4.0,12.0,41,0.00,,,0.00,Rainwise IP-100,2013-01-05 19:03:00,
2013-01-05 14:08:00,39.0,18.0,29.65,North,360,7.0,13.0,41,0.00,,,0.00,Rainwise IP-100,2013-01-05 19:08:00,
2013-01-05 14:13:00,39.0,18.0,29.65,NW,315,5.0,15.0,41,0.00,,,0.00,Rainwise IP-100,2013-01-05 19:13:00,
2013-01-05 14:18:00,39.0,18.0,29.65,NW,315,2.0,10.0,42,0.00,,,0.00,Rainwise IP-100,2013-01-05 19:18:00,
2013-01-05 14:23:00,39.0,18.0,29.65,NNW,337,9.0,12.0,41,0.00,,,0.00,Rainwise IP-100,2013-01-05 19:23:00,
2013-01-05 14:28:00,39.0,18.0,29.65,NNW,337,8.0,14.0,42,0.00,,,0.00,Rainwise IP-100,2013-01-05 19:28:00,
2013-01-05 14:33:00,38.0,18.0,29.65,NW,315,7.0,14.0,43,0.00,,,0.00,Rainwise IP-100,2013-01-05 19:33:00,
2013-01-05 14:38:00,38.0,18.0,29.64,NW,315,10.0,15.0,43,0.00,,,0.00,Rainwise IP-100,2013-01-05 19:38:00,
2013-01-05 14:43:00,38.0,18.0,29.64,NW,315,8.0,13.0,43,0.00,,,0.00,Rainwise IP-100,2013-01-05 19:43:00,
2013-01-05 14:48:00,38.0,18.0,29.64,NW,315,7.0,12.0,43,0.00,,,0.00,Rainwise IP-100,2013-01-05 19:48:00,
2013-01-05 14:53:00,38.0,18.0,29.64,North,360,8.0,12.0,44,0.00,,,0.00,Rainwise IP-100,2013-01-05 19:53:00,
2013-01-05 14:58:00,38.0,18.0,29.65,NW,315,10.0,14.0,44,0.00,,,0.00,Rainwise IP-100,2013-01-05 19:58:00,
2013-01-05 15:03:00,38.0,18.0,29.65,NW,315,6.0,16.0,43,0.00,,,0.00,Rainwise IP-100,2013-01-05 20:03:00,
2013-01-05 15:08:00,38.0,18.0,29.65,NW,315,7.0,9.0,43,0.00,,,0.00,Rainwise IP-100,2013-01-05 20:08:00,
2013-01-05 15:13:00,37.0,18.0,29.65,North,360,7.0,10.0,44,0.00,,,0.00,Rainwise IP-100,2013-01-05 20:13:00,
2013-01-05 15:18:00,37.0,16.0,29.66,NW,315,7.0,15.0,43,0.00,,,0.00,Rainwise IP-100,2013-01-05 20:18:00,
2013-01-05 15:23:00,37.0,16.0,29.66,NNW,337,12.0,12.0,43,0.00,,,0.00,Rainwise IP-100,2013-01-05 20:23:00,
2013-01-05 15:28:00,37.0,16.0,29.66,NNW,337,6.0,12.0,43,0.00,,,0.00,Rainwise IP-100,2013-01-05 20:28:00,
2013-01-05 15:33:00,37.0,16.0,29.66,NW,315,8.0,12.0,43,0.00,,,0.00,Rainwise IP-100,2013-01-05 20:33:00,
2013-01-05 15:38:00,37.0,18.0,29.67,NNW,337,10.0,12.0,44,0.00,,,0.00,Rainwise IP-100,2013-01-05 20:38:00,
2013-01-05 15:43:00,37.0,16.0,29.67,NNW,337,8.0,12.0,43,0.00,,,0.00,Rainwise IP-100,2013-01-05 20:43:00,
2013-01-05 15:48:00,37.0,18.0,29.67,NW,315,7.0,10.0,45,0.00,,,0.00,Rainwise IP-100,2013-01-05 20:48:00,
2013-01-05 15:53:00,37.0,18.0,29.67,NNW,337,7.0,10.0,44,0.00,,,0.00,Rainwise IP-100,2013-01-05 20:53:00,
2013-01-05 15:58:00,37.0,18.0,29.67,NW,315,7.0,8.0,44,0.00,,,0.00,Rainwise IP-100,2013-01-05 20:58:00,
2013-01-05 16:03:00,36.0,16.0,29.67,NNW,337,10.0,10.0,44,0.00,,,0.00,Rainwise IP-100,2013-01-05 21:03:00,
2013-01-05 16:08:00,36.0,16.0,29.67,NW,315,4.0,10.0,44,0.00,,,0.00,Rainwise IP-100,2013-01-05 21:08:00,
2013-01-05 16:13:00,36.0,16.0,29.67,NW,315,1.0,6.0,44,0.00,,,0.00,Rainwise IP-100,2013-01-05 21:13:00,
2013-01-05 16:18:00,35.0,16.0,29.68,NW,315,1.0,5.0,45,0.00,,,0.00,Rainwise IP-100,2013-01-05 21:18:00,
2013-01-05 16:23:00,35.0,16.0,29.68,WNW,292,2.0,6.0,45,0.00,,,0.00,Rainwise IP-100,2013-01-05 21:23:00,
2013-01-05 16:28:00,35.0,16.0,29.69,NW,315,4.0,7.0,45,0.00,,,0.00,Rainwise IP-100,2013-01-05 21:28:00,
2013-01-05 16:33:00,34.0,16.0,29.69,NW,315,1.0,5.0,46,0.00,,,0.00,Rainwise IP-100,2013-01-05 21:33:00,
2013-01-05 16:38:00,34.0,16.0,29.70,NW,315,0.0,2.0,46,0.00,,,0.00,Rainwise IP-100,2013-01-05 21:38:00,
2013-01-05 16:43:00,33.0,16.0,29.70,NW,315,2.0,3.0,46,0.00,,,0.00,Rainwise IP-100,2013-01-05 21:43:00,
2013-01-05 16:48:00,33.0,16.0,29.71,NW,315,0.0,4.0,48,0.00,,,0.00,Rainwise IP-100,2013-01-05 21:48:00,
2013-01-05 16:53:00,32.0,16.0,29.71,NW,315,0.0,2.0,49,0.00,,,0.00,Rainwise IP-100,2013-01-05 21:53:00,
2013-01-05 16:58:00,32.0,16.0,29.72,NW,315,0.0,1.0,49,0.00,,,0.00,Rainwise IP-100,2013-01-05 21:58:00,
2013-01-05 17:03:00,31.0,16.0,29.72,NW,315,2.0,2.0,50,0.00,,,0.00,Rainwise IP-100,2013-01-05 22:03:00,
2013-01-05 17:08:00,31.0,18.0,29.72,NW,315,2.0,3.0,56,0.00,,,0.00,Rainwise IP-100,2013-01-05 22:08:00,
2013-01-05 17:13:00,30.0,16.0,29.72,NW,315,0.0,2.0,55,0.00,,,0.00,Rainwise IP-100,2013-01-05 22:13:00,
2013-01-05 17:18:00,29.0,16.0,29.72,NW,315,3.0,3.0,58,0.00,,,0.00,Rainwise IP-100,2013-01-05 22:18:00,
2013-01-05 17:23:00,29.0,16.0,29.72,NW,315,1.0,3.0,57,0.00,,,0.00,Rainwise IP-100,2013-01-05 22:23:00,
2013-01-05 17:28:00,29.0,16.0,29.73,NW,315,1.0,2.0,57,0.00,,,0.00,Rainwise IP-100,2013-01-05 22:28:00,
2013-01-05 17:33:00,29.0,16.0,29.73,NW,315,0.0,2.0,55,0.00,,,0.00,Rainwise IP-100,2013-01-05 22:33:00,
2013-01-05 17:38:00,28.0,14.0,29.72,NW,315,2.0,2.0,56,0.00,,,0.00,Rainwise IP-100,2013-01-05 22:38:00,
2013-01-05 17:43:00,28.0,16.0,29.72,NW,315,2.0,3.0,59,0.00,,,0.00,Rainwise IP-100,2013-01-05 22:43:00,
2013-01-05 17:48:00,27.0,16.0,29.72,NW,315,0.0,2.0,59,0.00,,,0.00,Rainwise IP-100,2013-01-05 22:48:00,
2013-01-05 17:53:00,28.0,16.0,29.72,NW,315,1.0,2.0,58,0.00,,,0.00,Rainwise IP-100,2013-01-05 22:53:00,
2013-01-05 17:58:00,28.0,16.0,29.73,NW,315,0.0,2.0,58,0.00,,,0.00,Rainwise IP-100,2013-01-05 22:58:00,
2013-01-05 18:03:00,28.0,16.0,29.73,NW,315,2.0,2.0,59,0.00,,,0.00,Rainwise IP-100,2013-01-05 23:03:00,
2013-01-05 18:08:00,27.0,18.0,29.73,WNW,292,2.0,3.0,69,0.00,,,0.00,Rainwise IP-100,2013-01-05 23:08:00,
2013-01-05 18:13:00,27.0,16.0,29.73,WNW,292,1.0,3.0,62,0.00,,,0.00,Rainwise IP-100,2013-01-05 23:13:00,
2013-01-05 18:18:00,27.0,16.0,29.73,SE,135,3.0,4.0,60,0.00,,,0.00,Rainwise IP-100,2013-01-05 23:18:00,
2013-01-05 18:23:00,27.0,16.0,29.73,SE,135,0.0,4.0,59,0.00,,,0.00,Rainwise IP-100,2013-01-05 23:23:00,
2013-01-05 18:28:00,27.0,16.0,29.74,SE,135,1.0,1.0,61,0.00,,,0.00,Rainwise IP-100,2013-01-05 23:28:00,
2013-01-05 18:33:00,27.0,16.0,29.74,SE,135,0.0,1.0,62,0.00,,,0.00,Rainwise IP-100,2013-01-05 23:33:00,
2013-01-05 18:38:00,26.0,16.0,29.74,SE,135,0.0,1.0,62,0.00,,,0.00,Rainwise IP-100,2013-01-05 23:38:00,
2013-01-05 18:43:00,26.0,16.0,29.74,SE,135,4.0,4.0,64,0.00,,,0.00,Rainwise IP-100,2013-01-05 23:43:00,
2013-01-05 18:48:00,26.0,16.0,29.75,SE,135,0.0,5.0,61,0.00,,,0.00,Rainwise IP-100,2013-01-05 23:48:00,
2013-01-05 18:53:00,26.0,16.0,29.75,SE,135,0.0,0.0,62,0.00,,,0.00,Rainwise IP-100,2013-01-05 23:53:00,
2013-01-05 18:58:00,26.0,16.0,29.75,SE,135,0.0,0.0,62,0.00,,,0.00,Rainwise IP-100,2013-01-05 23:58:00,
2013-01-05 19:03:00,25.0,16.0,29.75,SE,135,1.0,2.0,63,0.00,,,0.00,Rainwise IP-100,2013-01-06 00:03:00,
2013-01-05 19:08:00,26.0,16.0,29.75,SE,135,0.0,1.0,62,0.00,,,0.00,Rainwise IP-100,2013-01-06 00:08:00,
2013-01-05 19:13:00,26.0,16.0,29.75,SE,135,1.0,1.0,66,0.00,,,0.00,Rainwise IP-100,2013-01-06 00:13:00,
2013-01-05 19:18:00,25.0,18.0,29.75,SE,135,0.0,1.0,68,0.00,,,0.00,Rainwise IP-100,2013-01-06 00:18:00,
2013-01-05 19:23:00,24.0,16.0,29.75,SE,135,3.0,4.0,70,0.00,,,0.00,Rainwise IP-100,2013-01-06 00:23:00,
2013-01-05 19:28:00,25.0,16.0,29.76,SE,135,1.0,4.0,66,0.00,,,0.00,Rainwise IP-100,2013-01-06 00:28:00,
2013-01-05 19:33:00,25.0,16.0,29.76,SE,135,0.0,2.0,65,0.00,,,0.00,Rainwise IP-100,2013-01-06 00:33:00,
2013-01-05 19:38:00,25.0,18.0,29.74,SE,135,0.0,1.0,71,0.00,,,0.00,Rainwise IP-100,2013-01-06 00:38:00,
2013-01-05 19:43:00,24.0,16.0,29.74,SE,135,4.0,4.0,73,0.00,,,0.00,Rainwise IP-100,2013-01-06 00:43:00,
2013-01-05 19:48:00,23.0,16.0,29.75,ESE,112,2.0,7.0,72,0.00,,,0.00,Rainwise IP-100,2013-01-06 00:48:00,
2013-01-05 19:53:00,23.0,14.0,29.75,ESE,112,0.0,4.0,70,0.00,,,0.00,Rainwise IP-100,2013-01-06 00:53:00,
2013-01-05 19:58:00,23.0,14.0,29.75,ESE,112,1.0,0.0,70,0.00,,,0.00,Rainwise IP-100,2013-01-06 00:58:00,
2013-01-05 20:03:00,23.0,16.0,29.75,ESE,112,2.0,2.0,71,0.00,,,0.00,Rainwise IP-100,2013-01-06 01:03:00,
2013-01-05 20:08:00,23.0,16.0,29.75,ESE,112,3.0,4.0,72,0.00,,,0.00,Rainwise IP-100,2013-01-06 01:08:00,
2013-01-05 20:13:00,23.0,16.0,29.75,WSW,247,2.0,4.0,74,0.00,,,0.00,Rainwise IP-100,2013-01-06 01:13:00,
2013-01-05 20:18:00,23.0,16.0,29.74,WSW,247,1.0,3.0,75,0.00,,,0.00,Rainwise IP-100,2013-01-06 01:18:00,
2013-01-05 20:23:00,23.0,16.0,29.74,WSW,247,1.0,2.0,73,0.00,,,0.00,Rainwise IP-100,2013-01-06 01:23:00,
2013-01-05 20:28:00,23.0,16.0,29.74,WSW,247,1.0,2.0,73,0.00,,,0.00,Rainwise IP-100,2013-01-06 01:28:00,
2013-01-05 20:33:00,23.0,16.0,29.74,WSW,247,1.0,3.0,74,0.00,,,0.00,Rainwise IP-100,2013-01-06 01:33:00,
2013-01-05 20:38:00,22.0,16.0,29.74,WSW,247,0.0,3.0,74,0.00,,,0.00,Rainwise IP-100,2013-01-06 01:38:00,
2013-01-05 20:43:00,22.0,16.0,29.74,WSW,247,2.0,2.0,72,0.00,,,0.00,Rainwise IP-100,2013-01-06 01:43:00,
2013-01-05 20:48:00,22.0,16.0,29.74,WSW,247,2.0,3.0,74,0.00,,,0.00,Rainwise IP-100,2013-01-06 01:48:00,
2013-01-05 20:53:00,22.0,16.0,29.74,WSW,247,0.0,3.0,77,0.00,,,0.00,Rainwise IP-100,2013-01-06 01:53:00,
2013-01-05 20:58:00,22.0,16.0,29.75,SSW,202,0.0,2.0,74,0.00,,,0.00,Rainwise IP-100,2013-01-06 01:58:00,
2013-01-05 21:03:00,22.0,16.0,29.75,WSW,247,0.0,4.0,78,0.00,,,0.00,Rainwise IP-100,2013-01-06 02:03:00,
2013-01-05 21:08:00,21.0,16.0,29.75,SE,135,0.0,5.0,78,0.00,,,0.00,Rainwise IP-100,2013-01-06 02:08:00,
2013-01-05 21:13:00,22.0,16.0,29.75,SE,135,0.0,2.0,77,0.00,,,0.00,Rainwise IP-100,2013-01-06 02:13:00,
2013-01-05 21:18:00,22.0,16.0,29.73,SE,135,0.0,4.0,75,0.00,,,0.00,Rainwise IP-100,2013-01-06 02:18:00,
2013-01-05 21:23:00,22.0,16.0,29.73,SE,135,0.0,3.0,78,0.00,,,0.00,Rainwise IP-100,2013-01-06 02:23:00,
2013-01-05 21:28:00,21.0,16.0,29.74,SE,135,0.0,0.0,79,0.00,,,0.00,Rainwise IP-100,2013-01-06 02:28:00,
2013-01-05 21:33:00,21.0,16.0,29.74,SE,135,1.0,0.0,78,0.00,,,0.00,Rainwise IP-100,2013-01-06 02:33:00,
2013-01-05 21:38:00,21.0,16.0,29.75,SE,135,0.0,4.0,78,0.00,,,0.00,Rainwise IP-100,2013-01-06 02:38:00,
2013-01-05 21:43:00,21.0,16.0,29.75,SE,135,0.0,1.0,80,0.00,,,0.00,Rainwise IP-100,2013-01-06 02:43:00,
2013-01-05 21:48:00,21.0,16.0,29.73,SE,135,0.0,1.0,78,0.00,,,0.00,Rainwise IP-100,2013-01-06 02:48:00,
2013-01-05 21:53:00,20.0,16.0,29.73,SE,135,0.0,0.0,80,0.00,,,0.00,Rainwise IP-100,2013-01-06 02:53:00,
2013-01-05 21:58:00,20.0,16.0,29.73,SE,135,2.0,2.0,82,0.00,,,0.00,Rainwise IP-100,2013-01-06 02:58:00,
2013-01-05 22:03:00,20.0,16.0,29.73,SE,135,1.0,3.0,79,0.00,,,0.00,Rainwise IP-100,2013-01-06 03:03:00,
2013-01-05 22:08:00,20.0,16.0,29.74,SE,135,0.0,2.0,78,0.00,,,0.00,Rainwise IP-100,2013-01-06 03:08:00,
2013-01-05 22:13:00,20.0,16.0,29.74,SE,135,0.0,1.0,81,0.00,,,0.00,Rainwise IP-100,2013-01-06 03:13:00,
2013-01-05 22:18:00,20.0,16.0,29.73,SE,135,0.0,1.0,79,0.00,,,0.00,Rainwise IP-100,2013-01-06 03:18:00,
2013-01-05 22:23:00,20.0,16.0,29.73,SE,135,2.0,2.0,80,0.00,,,0.00,Rainwise IP-100,2013-01-06 03:23:00,
2013-01-05 22:28:00,20.0,16.0,29.75,SE,135,1.0,3.0,80,0.00,,,0.00,Rainwise IP-100,2013-01-06 03:28:00,
2013-01-05 22:33:00,19.0,16.0,29.75,WSW,247,0.0,4.0,82,0.00,,,0.00,Rainwise IP-100,2013-01-06 03:33:00,
2013-01-05 22:38:00,19.0,16.0,29.74,WSW,247,1.0,2.0,83,0.00,,,0.00,Rainwise IP-100,2013-01-06 03:38:00,
2013-01-05 22:43:00,20.0,16.0,29.74,WSW,247,1.0,1.0,82,0.00,,,0.00,Rainwise IP-100,2013-01-06 03:43:00,
2013-01-05 22:48:00,20.0,16.0,29.75,WSW,247,3.0,3.0,81,0.00,,,0.00,Rainwise IP-100,2013-01-06 03:48:00,
2013-01-05 22:53:00,20.0,16.0,29.75,WSW,247,0.0,4.0,80,0.00,,,0.00,Rainwise IP-100,2013-01-06 03:53:00,
2013-01-05 22:58:00,19.0,16.0,29.75,WSW,247,0.0,0.0,81,0.00,,,0.00,Rainwise IP-100,2013-01-06 03:58:00,
2013-01-05 23:03:00,19.0,16.0,29.75,WSW,247,0.0,0.0,82,0.00,,,0.00,Rainwise IP-100,2013-01-06 04:03:00,
2013-01-05 23:08:00,19.0,16.0,29.73,SSW,202,0.0,2.0,83,0.00,,,0.00,Rainwise IP-100,2013-01-06 04:08:00,
2013-01-05 23:13:00,20.0,16.0,29.73,SSW,202,0.0,1.0,81,0.00,,,0.00,Rainwise IP-100,2013-01-06 04:13:00,
2013-01-05 23:18:00,20.0,16.0,29.72,SSW,202,0.0,0.0,80,0.00,,,0.00,Rainwise IP-100,2013-01-06 04:18:00,
2013-01-05 23:23:00,20.0,16.0,29.72,ESE,112,4.0,4.0,82,0.00,,,0.00,Rainwise IP-100,2013-01-06 04:23:00,
2013-01-05 23:28:00,20.0,16.0,29.71,ESE,112,3.0,5.0,83,0.00,,,0.00,Rainwise IP-100,2013-01-06 04:28:00,
2013-01-05 23:33:00,20.0,16.0,29.71,ESE,112,2.0,3.0,83,0.00,,,0.00,Rainwise IP-100,2013-01-06 04:33:00,
2013-01-05 23:38:00,20.0,16.0,29.72,ESE,112,1.0,4.0,82,0.00,,,0.00,Rainwise IP-100,2013-01-06 04:38:00,
2013-01-05 23:43:00,20.0,16.0,29.72,ESE,112,0.0,3.0,82,0.00,,,0.00,Rainwise IP-100,2013-01-06 04:43:00,
2013-01-05 23:48:00,20.0,16.0,29.72,ESE,112,2.0,2.0,83,0.00,,,0.00,Rainwise IP-100,2013-01-06 04:48:00,
2013-01-05 23:53:00,20.0,16.0,29.72,ESE,112,0.0,2.0,82,0.00,,,0.00,Rainwise IP-100,2013-01-06 04:53:00,
2013-01-05 23:58:00,20.0,16.0,29.71,ESE,112,1.0,1.0,83,0.00,,,0.00,Rainwise IP-100,2013-01-06 04:58:00,